#timestamp,LO_Frequency,Hit,StdDev 
1638788415.7,286046998.9,N
1638788435.6,286046999.5,N
1638788455.4,286047000.7,N
1638788475.3,286046998.6,N
1638788495.1,286046998.2,N
1638788496.0,286046998.2,N
1638788515.8,286046999.8,N
1638788535.7,286047000.6,N
1638788555.5,286047002.3,N
1638788575.4,286047001.9,N
1638788595.2,286047002.8,N
1638788615.0,286047002.4,N
1638788615.9,286047002.4,N
1638788635.8,286047001.2,N
1638788655.6,286046998.6,N
1638788675.4,286046998.2,N
1638788695.3,286046998.2,N
1638788715.1,286047000.1,N
1638788735.9,286047000.4,N
1638788755.7,286047000.9,N
1638788775.5,286046999.9,N
1638788795.4,286047002.4,N
1638788815.2,286047000.1,N
1638788835.0,286047000.0,N
1638788835.9,286047000.0,N
1638788855.8,286047000.8,N
1638788875.6,286046998.1,N
1638788895.5,286047000.4,N
1638788915.3,286047000.2,N
1638788935.1,286046999.8,N
1638788955.9,286046999.7,N
1638788975.7,286046999.7,N
1638788995.5,286047002.1,N
1638789015.4,286047002.3,N
1638789035.2,286047002.0,N
1638789055.1,286047002.3,N
1638789056.0,286047002.3,N
1638789075.8,286046999.9,N
1638789095.6,286047002.3,N
1638789115.5,286047000.1,N
1638789135.3,286047001.0,N
1638789155.2,286046998.2,N
1638789175.9,286047000.3,N
1638789195.7,286047000.6,N
1638789215.6,286046999.9,N
1638789235.4,286047002.6,N
1638789255.3,286047002.1,N
1638789275.1,286047002.4,N
1638789276.0,286047002.4,N
1638789295.8,286047000.5,N
1638789315.7,286047002.3,N
1638789335.5,286047002.5,N
1638789355.3,286047002.2,N
1638789375.2,286047001.7,N
1638789395.0,286047003.9,Y
1638789395.9,286047003.9,P
1638789415.8,286047002.3,N
1638789435.6,286046999.9,N
1638789455.4,286047002.7,N
1638789475.3,286047002.4,N
1638789495.1,286047000.5,N
1638789515.9,286047000.7,N
1638789535.7,286046998.3,N
1638789555.5,286046998.6,N
1638789575.4,286046998.8,N
1638789595.2,286046999.4,N
1638789615.1,286046998.8,N
1638789616.0,286046998.8,N
1638789635.8,286046998.7,N
1638789655.6,286046998.3,N
1638789675.5,286047000.7,N
1638789695.3,286047000.7,N
1638789715.1,286047001.2,N
1638789735.9,286046998.5,N
1638789755.7,286047000.1,N
1638789775.6,286047000.2,N
1638789795.4,286047001.2,N
1638789815.2,286046998.1,N
1638789835.1,286046998.1,N
1638789836.0,286046998.1,N
1638789855.8,286047000.9,N
1638789875.7,286047000.7,N
1638789895.5,286047000.1,N
1638789915.3,286047001.0,N
1638789935.2,286047000.3,N
1638789955.0,286046999.4,N
1638789955.9,286046999.4,N
1638789975.8,286046997.5,N
1638789995.6,286046995.0,Y
1638790015.4,286046997.5,P
1638790035.3,286046997.5,N
1638790055.1,286046999.5,N
1638790075.8,286046999.2,N
1638790095.7,286046998.8,N
1638790115.5,286046999.1,N
1638790135.4,286046999.0,N
1638790155.2,286046998.1,N
1638790175.0,286046999.4,N
1638790175.9,286046999.4,N
1638790195.8,286046999.5,N
1638790215.6,286046999.2,N
1638790235.4,286046998.9,N
1638790255.3,286046999.6,N
1638790275.1,286046996.8,Y
1638790295.9,286046998.4,P
1638790315.7,286046998.3,P
1638790335.5,286047001.2,P
1638790355.4,286047000.9,N
1638790375.2,286047001.1,N
1638790395.1,286047000.7,N
1638790396.0,286047000.7,N
1638790415.8,286047000.9,N
1638790435.6,286047001.2,N
1638790455.5,286046999.6,N
1638790475.3,286046999.2,N
1638790495.2,286046996.5,Y
1638790515.9,286046997.1,P
1638790535.2,286046996.8,N
1638790555.9,286046999.2,N
1638790575.7,286046997.1,N
1638790595.6,286046997.0,N
1638790615.4,286046999.3,N
1638790635.3,286046997.1,N
1638790655.1,286046998.9,N
1638790656.0,286046998.9,N
1638790675.8,286046998.2,N
1638790695.7,286046999.5,N
1638790715.5,286046998.0,N
1638790735.3,286046995.0,Y
1638790755.2,286046996.6,P
1638790775.0,286046997.1,P
1638790775.9,286046997.1,P
1638790795.8,286046998.5,N
1638790815.6,286046998.7,N
1638790835.4,286047001.1,N
1638790855.3,286046998.9,N
1638790875.1,286046999.1,N
1638790895.8,286046999.1,N
1638790915.7,286047000.8,N
1638790935.5,286046998.1,N
1638790955.4,286046999.2,N
1638790975.2,286046998.4,N
1638790995.0,286046999.2,N
1638790995.9,286046999.2,N
1638791015.8,286047001.0,N
1638791035.6,286046998.1,N
1638791055.5,286047000.9,N
1638791075.3,286047000.5,N
1638791095.1,286046998.5,N
1638791115.9,286046998.6,N
1638791135.7,286047000.7,N
1638791155.5,286046998.6,N
1638791175.4,286046998.3,N
1638791195.2,286047000.9,N
1638791215.1,286046998.9,N
1638791216.0,286046998.9,N
1638791235.8,286046999.0,N
1638791255.7,286046996.6,N
1638791275.5,286046996.9,N
1638791295.3,286046998.9,N
1638791315.2,286046998.6,N
1638791335.0,286046998.4,N
1638791335.9,286046998.4,N
1638791355.7,286046997.6,N
1638791375.6,286046997.7,N
1638791395.4,286046997.5,N
1638791415.3,286046997.8,N
1638791435.1,286046997.2,N
1638791436.0,286046997.2,N
1638791455.8,286046999.1,N
1638791475.7,286046999.5,N
1638791495.5,286046999.5,N
1638791515.4,286046999.6,N
1638791535.2,286046999.5,N
1638791555.0,286046996.5,N
1638791555.9,286046996.5,N
1638791575.8,286046997.9,N
1638791595.6,286046997.6,N
1638791615.5,286046996.5,Y
1638791635.3,286046999.0,P
1638791655.1,286046999.3,N
1638791675.9,286046996.6,P
1638791695.7,286046999.2,N
1638791715.5,286046999.5,N
1638791735.4,286046999.6,N
1638791755.2,286046996.7,Y
1638791775.1,286046997.1,P
1638791776.0,286046997.1,P
1638791795.8,286046995.4,P
1638791815.6,286046995.4,Y
1638791835.5,286046998.1,P
1638791855.3,286047000.9,N
1638791875.1,286047000.4,N
1638791895.9,286047000.1,N
1638791915.7,286047002.1,N
1638791935.6,286047001.9,N
1638791955.4,286047001.3,N
1638791975.2,286047001.6,N
1638791995.1,286047003.9,N
1638791996.0,286047003.9,N
